Flag for Germany Weather past 2 weeks in Völklingen, Saarland, Germany

Now
48 °F

Passing clouds.


Feels Like: 41 °F
Forecast: 38 / 44 °F
Wind: 22 mph from Southwest

Location: Saarbruecken / Ensheim

Current Time: Dec 19, 2014 at 7:41:12 AM

Latest Report: Dec 19, 2014 at 6:50 AM


Visibility: 5 mi

Pressure: 30.09 "Hg

Humidity: 87%

Dew point: 45 °F

Location of VölklingenLocation

Historic Weather in Völklingen — Graph

°F

Völklingen temperature yesterday

Maximum temperature yesterday: 52 °F (at 1:20 PM)
Minimum temperature yesterday: 43 °F (at 12:20 AM)
Average temperature yesterday: 48 °F

Past Weeks' High & Low Weather Summary

 TemperatureHumidityPressure
High52 °F (Dec 18, 1:20 PM)100% (Dec 4, 6:20 AM)30.39 "Hg (Dec 4, 6:20 AM)
Low32 °F (Dec 4, 6:20 AM)70% (Dec 7, 1:50 PM)29.65 "Hg (Dec 12, 4:50 PM)
Average40 °F93%30.02 "Hg
* Reported Dec 4 6:20 AM — Dec 19 6:20 AM, Völklingen, Weather by CustomWeather, © 2014

Note: Actual official high and low records may vary slightly from our data, if they occured in-between our weather recording intervals... More about our weather records

Advertising

Völklingen weather history for previous 24 hours

 ConditionsComfort  
Time TempWeatherWind HumidityBarometerVisibility
6:20 AM
Dec 19
48 °FPassing clouds.20 mph94%30.09 "Hg4 mi
5:50 AM48 °FPassing clouds.18 mph94%30.09 "Hg6 mi
5:20 AM48 °FDrizzle. Fog.16 mph94%30.09 "Hg3 mi
4:20 AM48 °FPassing clouds.16 mph94%30.09 "HgN/A
3:50 AM48 °FLight rain. Passing clouds.14 mph94%30.09 "HgN/A
3:20 AM48 °FPassing clouds.17 mph94%30.09 "HgN/A
2:50 AM50 °FPassing clouds.20 mph88%30.09 "HgN/A
2:20 AM50 °FPassing clouds.21 mph88%30.12 "HgN/A
1:50 AM48 °FPartly cloudy.17 mph94%30.12 "HgN/A
1:20 AM48 °FLight rain. Passing clouds.18 mph94%30.12 "HgN/A
12:50 AM48 °FLight rain. Partly cloudy.21 mph94%30.12 "HgN/A
12:20 AM50 °FLight rain. Passing clouds.18 mph88%30.12 "HgN/A
11:50 PM
Dec 18
50 °FPassing clouds.23 mph82%30.12 "HgN/A
11:20 PM50 °FPassing clouds.20 mph88%30.12 "HgN/A
10:50 PM50 °FPassing clouds.21 mph88%30.12 "HgN/A
10:20 PM50 °FPassing clouds.21 mph88%30.12 "HgN/A
9:20 PM50 °FPassing clouds.21 mph88%30.09 "HgN/A
8:50 PM52 °FPassing clouds.17 mph88%30.09 "HgN/A
8:20 PM50 °FPassing clouds.17 mph94%30.09 "HgN/A
7:50 PM52 °FPassing clouds.18 mph94%30.09 "HgN/A
7:20 PM52 °FPassing clouds.20 mph94%30.07 "Hg4 mi
6:50 PM52 °FPassing clouds.21 mph100%30.07 "Hg5 mi
6:20 PM52 °FDrizzle. Fog.20 mph100%30.07 "Hg3 mi
5:50 PM52 °FDrizzle. Fog.20 mph100%30.07 "Hg3 mi
5:20 PM52 °FDrizzle. Fog.20 mph100%30.04 "Hg3 mi
4:20 PM52 °FPartly sunny.21 mph100%30.01 "Hg4 mi
3:50 PM52 °FPartly sunny.18 mph100%30.01 "Hg4 mi
3:20 PM52 °FDrizzle. Fog.18 mph100%30.01 "Hg2 mi
2:50 PM52 °FDrizzle. Fog.16 mph94%30.01 "Hg2 mi
2:20 PM52 °FPartly sunny.18 mph100%29.98 "Hg4 mi
1:50 PM52 °FDrizzle. Fog.17 mph100%29.98 "Hg2 mi
1:20 PM52 °FPartly sunny.17 mph94%29.98 "Hg4 mi
12:50 PM50 °FDrizzle. Fog.16 mph100%29.98 "Hg2 mi
12:20 PM50 °FDrizzle. Fog.16 mph100%29.98 "Hg1 mi
11:50 AM50 °FDrizzle. Fog.15 mph94%29.98 "Hg1 mi
11:20 AM48 °FDrizzle. Fog.16 mph100%29.98 "Hg1 mi
10:50 AM48 °FDrizzle. Fog.16 mph100%29.98 "Hg2 mi
10:20 AM48 °FFog.17 mph100%29.98 "Hg2 mi
9:50 AM48 °FFog.16 mph94%29.98 "Hg2 mi
9:20 AM46 °FFog.13 mph100%29.95 "Hg2 mi
8:50 AM46 °FDrizzle. Fog.10 mph100%29.95 "Hg1 mi
8:20 AM46 °FDrizzle. Fog.10 mph100%29.95 "Hg2 mi
7:50 AM46 °FDrizzle. Fog.13 mph100%29.95 "Hg2 mi
7:20 AM45 °FFog.13 mph100%29.95 "Hg3 mi
Weather by CustomWeather, © 2014

See weather overviewHow to use our weather pages